Location: Newark
(50.4348°N, 30.5552°E)
Time: 23:54:58
(UTC+00:00)

Tiros 1 despin weight - Visible Passes

Search period start: 16 January 2021 00:00
Search period end: 26 January 2021 00:00
Orbit: 594 x 641 km, 48.2° (Epoch: 16 January)

Date Brightness Start Highest point End Pass type
(mag) Time Alt. Az. Time Alt. Az. Time Alt. Az.
16 Jan ? 16:32:20 10° WSW 16:36:39 49° SSE 16:37:23 43° SE visible
16 Jan ? 18:13:33 10° W 18:14:26 16° W 18:14:26 16° W visible
17 Jan ? 15:07:58 10° SSW 15:11:50 29° SSE 15:15:39 10° E visible
17 Jan ? 16:48:32 10° WSW 16:52:56 60° S 16:53:08 59° SSE visible
17 Jan ? 18:29:54 10° W 18:30:11 12° W 18:30:11 12° W visible
18 Jan ? 15:23:48 10° SW 15:28:00 41° SSE 15:31:50 12° E visible
18 Jan ? 17:04:50 10° W 17:08:53 63° SSW 17:08:53 63° SSW visible
19 Jan ? 15:39:54 10° WSW 15:44:16 54° SSE 15:47:35 16° E visible
19 Jan ? 17:21:11 10° W 17:24:38 49° WSW 17:24:38 49° WSW visible
20 Jan ? 15:56:08 10° WSW 16:00:34 64° S 16:03:20 22° E visible
20 Jan ? 17:37:33 10° W 17:40:23 36° WSW 17:40:23 36° WSW visible
21 Jan ? 16:12:28 10° W 16:16:54 67° S 16:19:06 28° ESE visible
21 Jan ? 17:53:57 10° W 17:56:09 26° WSW 17:56:09 26° WSW visible
22 Jan ? 16:28:49 10° W 16:33:14 62° S 16:34:55 35° ESE visible
22 Jan ? 18:10:27 10° W 18:11:58 19° WSW 18:11:58 19° WSW visible
23 Jan ? 16:45:12 10° W 16:49:32 51° SSW 16:50:47 38° SSE visible
23 Jan ? 18:27:11 10° W 18:27:50 13° WSW 18:27:50 13° WSW visible
24 Jan ? 15:20:05 10° W 15:24:33 66° S 15:28:57 10° ESE visible
24 Jan ? 17:01:38 10° W 17:05:45 38° SSW 17:06:43 33° S visible
25 Jan ? 15:36:27 10° W 15:40:52 58° SSW 15:45:13 10° ESE visible
25 Jan ? 17:18:12 10° W 17:21:54 26° SSW 17:22:45 24° SSW visible
